Satellite: NOAA-11
Catalog number: 19531
Epoch time:      09106.33067625
Element set:     588
Inclination:      098.7811 deg
RA of node:       197.2403 deg
Eccentricity:    0.0010861
Arg of perigee:   287.4148 deg
Mean anomaly:     072.5840 deg
Mean motion:   14.14891671 rev/day
Decay rate:      -2.24e-06 rev/day^2
Epoch rev:            6077
Checksum:              307

Satellite: NOAA-12
Catalog number: 21263
Epoch time:      09106.55364312
Element set:      78
Inclination:      098.7744 deg
RA of node:       114.5847 deg
Eccentricity:    0.0012164
Arg of perigee:   329.9867 deg
Mean anomaly:     030.0615 deg
Mean motion:   14.25574159 rev/day
Decay rate:        2.9e-07 rev/day^2
Epoch rev:           93161
Checksum:              304

Satellite: MET-3/5
Catalog number: 21655
Epoch time:      09105.93052592
Element set:    0643
Inclination:      082.5474 deg
RA of node:       250.4702 deg
Eccentricity:    0.0013549
Arg of perigee:   341.6684 deg
Mean anomaly:     018.3941 deg
Mean motion:   13.17018740 rev/day
Decay rate:        5.1e-07 rev/day^2
Epoch rev:           84943
Checksum:              297

Satellite: MET-2/21
Catalog number: 22782
Epoch time:      09106.71226702
Element set:     432
Inclination:      082.5483 deg
RA of node:       230.7626 deg
Eccentricity:    0.0023095
Arg of perigee:   155.8873 deg
Mean anomaly:     204.3389 deg
Mean motion:   13.83636002 rev/day
Decay rate:       1.19e-06 rev/day^2
Epoch rev:           78910
Checksum:              297

Satellite: OKEAN-4
Catalog number: 23317
Epoch time:      09106.75454499
Element set:     882
Inclination:      082.5417 deg
RA of node:       031.8123 deg
Eccentricity:    0.0021119
Arg of perigee:   203.5692 deg
Mean anomaly:     156.4582 deg
Mean motion:   14.82688405 rev/day
Decay rate:       1.25e-06 rev/day^2
Epoch rev:           78326
Checksum:              308

Satellite: NOAA-14
Catalog number: 23455
Epoch time:      09106.45695103
Element set:     583
Inclination:      098.9101 deg
RA of node:       184.3460 deg
Eccentricity:    0.0009402
Arg of perigee:   011.8607 deg
Mean anomaly:     348.2777 deg
Mean motion:   14.13761452 rev/day
Decay rate:       -4.5e-07 rev/day^2
Epoch rev:           73720
Checksum:              293

Satellite: NOAA-15
Catalog number: 25338
Epoch time:      09106.53394450
Element set:     892
Inclination:      098.5827 deg
RA of node:       097.1037 deg
Eccentricity:    0.0009755
Arg of perigee:   234.7314 deg
Mean anomaly:     125.2950 deg
Mean motion:   14.24752917 rev/day
Decay rate:      -1.43e-06 rev/day^2
Epoch rev:           56799
Checksum:              332

Satellite: RESURS
Catalog number: 25394
Epoch time:      09106.96730262
Element set:     190
Inclination:      098.3488 deg
RA of node:       142.4169 deg
Eccentricity:    0.0002359
Arg of perigee:   046.1572 deg
Mean anomaly:     313.9802 deg
Mean motion:   14.24181627 rev/day
Decay rate:       -1.9e-07 rev/day^2
Epoch rev:           55968
Checksum:              311

Satellite: FENGYUN1
Catalog number: 25730
Epoch time:      09106.95336126
Element set:     733
Inclination:      098.7537 deg
RA of node:       078.9565 deg
Eccentricity:    0.0022984
Arg of perigee:   034.3220 deg
Mean anomaly:     325.9429 deg
Mean motion:   14.07965856 rev/day
Decay rate:       2.56e-06 rev/day^2
Epoch rev:           51170
Checksum:              321

Satellite: OKEAN-0
Catalog number: 25860
Epoch time:      09105.49657556
Element set:    0652
Inclination:      097.7820 deg
RA of node:       089.1852 deg
Eccentricity:    0.0001693
Arg of perigee:   054.4397 deg
Mean anomaly:     305.6967 deg
Mean motion:   14.73567408 rev/day
Decay rate:        3.0e-07 rev/day^2
Epoch rev:           52391
Checksum:              328

Satellite: NOAA-16
Catalog number: 26536
Epoch time:      09106.31210695
Element set:     367
Inclination:      099.1771 deg
RA of node:       108.4839 deg
Eccentricity:    0.0011453
Arg of perigee:   094.8233 deg
Mean anomaly:     265.4240 deg
Mean motion:   14.12514563 rev/day
Decay rate:      -1.88e-06 rev/day^2
Epoch rev:           44156
Checksum:              301

Satellite: NOAA-17
Catalog number: 27453
Epoch time:      09106.45137272
Element set:     375
Inclination:      098.4884 deg
RA of node:       167.6318 deg
Eccentricity:    0.0010814
Arg of perigee:   306.8209 deg
Mean anomaly:     053.1980 deg
Mean motion:   14.24055123 rev/day
Decay rate:       -6.5e-07 rev/day^2
Epoch rev:           35396
Checksum:              308

Satellite: NOAA-18
Catalog number: 28654
Epoch time:      09106.43657971
Element set:     865
Inclination:      098.9040 deg
RA of node:       050.1682 deg
Eccentricity:    0.0014267
Arg of perigee:   173.7548 deg
Mean anomaly:     186.3796 deg
Mean motion:   14.11248699 rev/day
Decay rate:      -1.27e-06 rev/day^2
Epoch rev:           20124
Checksum:              333

